Change the Weather History Date:

Wednesday, December 5, 2012

  Actual Average Record
Temperature  
Mean Temperature 44 °F -  
Max Temperature 54 °F 44 °F 71 °F (2001)
Min Temperature 33 °F 25 °F 11 °F (1935)
Degree Days  
Heating Degree Days 20    
Moisture  
Dew Point 36 °F    
Average Humidity 67    
Maximum Humidity 100    
Minimum Humidity 41    
Precipitation  
Precipitation 0.08 in - - ()
Sea Level Pressure  
Sea Level Pressure 30.06 in    
Wind  
Wind Speed 5 mph (NW)    
Max Wind Speed 18 mph    
Max Gust Speed 29 mph    
Visibility 10 miles    
Events Rain    
Averages and records for this station are not official NWS values.
T = Trace of Precipitation, MM = Missing Value Source: NWS Daily Summary

Daily Weather History Graph

Daily Weather History Graph

Search for Another Location

Airport or City:

Trip Planner

Search our weather history database for the weather conditions in past years. The results will help you decide how hot, cold, wet, or windy it might be!

Date:

Astronomy

Dec. 05, 2012 Rise Set
Actual Time 7:07 AM EST 4:31 PM EST
Civil Twilight 6:36 AM EST 5:02 PM EST
Nautical Twilight 6:02 AM EST 5:36 PM EST
Astronomical Twilight 5:29 AM EST 6:09 PM EST
Moon 11:19 PM EST (12/5) 11:28 AM EST (12/5)
Length of Visible Light 10h 25m
Length of Day
9h 24m
Waning Gibbous, 60% of the Moon is Illuminated
Dec 5
Waning Gibbous
Dec 6
Last Quarter
Dec 13
New
Dec 20
First Quarter
Dec 28
Full

Hourly Weather History & Observations

Time (EST) Temp. Windchill Dew Point Humidity Pressure Visibility Wind Dir Wind Speed Gust Speed Precip Events Conditions
12:53 AM 48.0 °F - 46.9 °F 96% 29.94 in - Calm Calm - 0.01 in   Overcast
1:53 AM 48.0 °F - 46.9 °F 96% 29.92 in - Calm Calm - 0.00 in   Overcast
2:53 AM 50.0 °F - 48.9 °F 96% 29.91 in - Calm Calm - 0.01 in   Overcast
3:53 AM 48.9 °F - 48.0 °F 97% 29.94 in - NNW 3.5 mph - 0.00 in Rain Light Rain
4:02 AM 48.2 °F - 48.2 °F 100% 29.94 in - Calm Calm - 0.00 in Rain Light Rain
4:29 AM 53.6 °F - 51.8 °F 94% 29.93 in - NNW 6.9 mph - 0.00 in   Overcast
4:53 AM 54.0 °F - 50.0 °F 86% 29.95 in - North 3.5 mph - 0.00 in   Overcast
5:53 AM 51.1 °F - 50.0 °F 96% 29.98 in - West 3.5 mph - N/A   Mostly Cloudy
6:53 AM 50.0 °F - 46.0 °F 86% 30.01 in - Calm Calm - N/A   Overcast
7:53 AM 48.0 °F - 45.0 °F 89% 30.03 in - Calm Calm - N/A   Overcast
9:53 AM 52.0 °F - 39.9 °F 63% 30.06 in - West 5.8 mph - N/A   Clear
10:53 AM 52.0 °F - 39.9 °F 63% 30.04 in - Variable 5.8 mph - N/A   Mostly Cloudy
11:53 AM 53.1 °F - 34.0 °F 48% 30.03 in 10.0 mi NW 9.2 mph 18.4 mph N/A   Clear
12:53 PM 54.0 °F - 33.1 °F 45% 30.03 in 10.0 mi NW 12.7 mph 21.9 mph 0.06 in   Clear
1:53 PM 54.0 °F - 30.9 °F 41% 30.04 in 10.0 mi WNW 11.5 mph 27.6 mph N/A   Clear
2:53 PM 50.0 °F - 30.9 °F 48% 30.05 in 10.0 mi WNW 8.1 mph - N/A   Clear
3:53 PM 50.0 °F - 30.9 °F 48% 30.06 in 10.0 mi Variable 6.9 mph - N/A   Scattered Clouds
4:53 PM 46.9 °F - 30.9 °F 54% 30.10 in 10.0 mi NNW 10.4 mph 18.4 mph N/A   Overcast
5:53 PM 44.1 °F 36.2 °F 24.1 °F 45% 30.15 in 10.0 mi NW 18.4 mph 28.8 mph N/A   Mostly Cloudy
6:53 PM 41.0 °F 34.3 °F 19.0 °F 41% 30.19 in 10.0 mi NNW 11.5 mph 20.7 mph N/A   Clear
7:53 PM 39.0 °F 31.0 °F 19.9 °F 46% 30.21 in 10.0 mi NW 13.8 mph 23.0 mph N/A   Partly Cloudy
8:53 PM 37.9 °F 32.7 °F 19.0 °F 47% 30.22 in 10.0 mi NW 6.9 mph - N/A   Mostly Cloudy
9:53 PM 37.0 °F 27.7 °F 19.0 °F 48% 30.22 in 10.0 mi NW 16.1 mph 20.7 mph N/A   Partly Cloudy
10:53 PM 35.1 °F 27.4 °F 18.0 °F 50% 30.25 in 10.0 mi North 10.4 mph 16.1 mph N/A   Mostly Cloudy
11:53 PM 33.1 °F 27.7 °F 18.0 °F 54% 30.26 in 10.0 mi NNW 5.8 mph - N/A   Scattered Clouds